W2DSX-2 Weather Reports


Display with metric or nautical units.
time (UTC)temp
F
wind
direction
speed
MPH
gust
MPH
rain 1hr
in
rain 24hr
in
rain mn
in
humidity
%
barometer
mb
20260506131503 58 143 5.0 14.0 0.00 0.00 0.00 82 1010.5
20260506130007 57 224 4.0 11.0 0.00 0.00 0.00 84 1010.5
20260506124503 57 223 3.0 7.0 0.00 0.00 0.00 83 1010.4
20260506123005 57 260 4.0 11.0 0.00 0.00 0.00 82 1010.4
20260506121504 57 240 4.0 10.0 0.00 0.00 0.00 83 1010.6
20260506120005 57 252 2.0 6.0 0.00 0.00 0.00 83 1010.7
20260506114503 57 195 2.0 5.0 0.00 0.00 0.00 85 1010.7
20260506113003 56 200 4.0 8.0 0.00 0.00 0.00 86 1010.6
20260506110005 55 155 4.0 10.0 0.00 0.00 0.00 87 1010.5
20260506104503 55 214 2.0 8.0 0.00 0.00 0.00 88 1010.5
20260506103004 55 223 2.0 4.0 0.00 0.00 0.00 88 1010.4
20260506101503 54 181 3.0 6.0 0.00 0.00 0.00 88 1010.3
20260506093002 55 227 4.0 9.0 0.00 0.00 0.00 87 1010.3
20260506084503 55 214 3.0 10.0 0.00 0.00 0.00 86 1010.4
20260506081504 55 243 4.0 12.0 0.00 0.00 0.00 86 1010.7
20260506073002 55 153 3.0 10.0 0.00 0.00 0.00 85 1010.7
20260506071503 55 189 4.0 11.0 0.00 0.00 0.00 85 1010.9
20260506061502 55 257 5.0 15.0 0.00 0.00 0.00 84 1010.9
20260506044506 56 207 6.0 15.0 0.00 0.00 0.00 81 1011.4
20260506043005 57 210 6.0 15.0 0.00 0.00 0.00 81 1011.4
20260506041504 57 191 6.0 14.0 0.00 0.00 0.00 80 1011.2
20260506040007 57 205 7.0 18.0 0.00 0.00 0.00 80 1011.3
20260506033005 58 191 8.0 23.0 0.00 0.00 0.00 79 1011.0
20260506031503 58 222 6.0 13.0 0.00 0.00 0.00 79 1011.1
20260506024504 58 218 7.0 18.0 0.00 0.00 0.00 78 1011.0
20260506023005 59 188 8.0 17.0 0.00 0.00 0.00 78 1011.0
20260506021504 58 226 6.0 16.0 0.00 0.00 0.00 77 1011.0
20260506020007 59 195 7.0 17.0 0.00 0.00 0.00 76 1011.1
20260506014504 58 236 5.0 10.0 0.00 0.00 0.00 76 1011.0
20260506013005 59 219 6.0 17.0 0.00 0.00 0.00 76 1010.8
20260506011504 59 229 6.0 16.0 0.00 0.00 0.00 75 1010.8
20260506010006 59 162 7.0 17.0 0.00 0.00 0.00 74 1010.7
20260506004505 60 169 6.0 18.0 0.00 0.00 0.00 73 1010.6
20260506003006 60 213 9.0 22.0 0.00 0.00 0.00 72 1010.4
20260506000008 61 213 9.0 21.0 0.00 0.00 0.00 70 1010.1
20260505234504 63 228 11.0 28.0 0.00 0.00 0.00 68 1009.5
20260505233005 62 224 10.0 31.0 0.00 0.00 0.00 69 1009.2
20260505231504 62 236 11.0 23.0 0.00 0.00 0.00 69 1009.0
20260505230008 62 165 10.0 25.0 0.00 0.00 0.00 69 1008.9
20260505224503 63 226 11.0 25.0 0.00 0.00 0.00 68 1008.9
20260505223005 63 233 8.0 17.0 0.00 0.00 0.00 68 1008.8
20260505221504 63 208 10.0 24.0 0.00 0.00 0.00 67 1008.8
20260505220008 64 205 9.0 23.0 0.00 0.00 0.00 67 1008.8
20260505214503 64 214 7.0 19.0 0.00 0.00 0.00 67 1008.7
20260505213004 63 161 8.0 21.0 0.00 0.00 0.00 67 1008.5
20260505211504 63 209 10.0 22.0 0.00 0.00 0.00 67 1008.3
20260505210008 63 210 10.0 23.0 0.00 0.00 0.00 68 1008.2
20260505204504 62 231 10.0 20.0 0.00 0.00 0.00 69 1008.5
20260505203005 63 200 9.0 19.0 0.00 0.00 0.00 67 1008.4
20260505201504 63 146 8.0 18.0 0.00 0.00 0.00 67 1008.4
20260505200007 63 225 8.0 18.0 0.00 0.00 0.00 68 1008.6
20260505194503 64 226 6.0 16.0 0.00 0.00 0.00 67 1008.8
20260505193006 64 156 7.0 22.0 0.00 0.00 0.00 67 1009.0
20260505191504 65 223 9.0 19.0 0.00 0.00 0.00 65 1009.5
20260505190005 65 174 7.0 16.0 0.00 0.00 0.00 66 1009.8
20260505184504 64 203 6.0 18.0 0.00 0.00 0.00 67 1010.0
20260505183004 64 236 6.0 17.0 0.00 0.00 0.00 66 1010.1
20260505181504 64 176 4.0 15.0 0.00 0.00 0.00 66 1010.3
20260505180006 64 141 3.0 7.0 0.00 0.00 0.00 68 1010.4
20260505174504 64 193 3.0 8.0 0.00 0.00 0.00 70 1010.7
20260505173003 64 195 3.0 8.0 0.00 0.00 0.00 68 1010.7
20260505171506 63 101 3.0 9.0 0.00 0.00 0.00 70 1010.7
20260505170006 64 143 4.0 11.0 0.00 0.00 0.00 68 1010.9
20260505164504 64 169 3.0 10.0 0.00 0.00 0.00 68 1011.0
20260505163004 66 219 3.0 7.0 0.00 0.00 0.00 66 1011.0
20260505161505 68 200 2.0 6.0 0.00 0.00 0.00 65 1011.1
20260505153004 64 158 3.0 7.0 0.00 0.00 0.00 69 1011.6
20260505151505 63 195 2.0 6.0 0.00 0.00 0.00 70 1011.6